Location: Chatou
(48.8898°N, 2.1586°E)
Time: 07:34:37
(UTC+00:00)

Cosmos 2333 Rocket - Pass Details

Date: 03 February 2023
Orbit: 838 x 864 km, 70.8° (Epoch: 21 March)

Event Time Altitude Azimuth Distance (km) Brightness Sun altitude
Rises 19:55:23 0° 226° (SW) 3,383 5.8 -30.3°
Reaches altitude 10° 19:57:54 10° 232° (SW) 2,455 5.1 -30.7°
Maximum altitude 20:03:20 48° 306° (NW) 1,103 3.0 -31.6°
Enters shadow 20:04:29 42° 340° (NNW) 1,200 3.1 -31.8°
